Atlanta, GA

7:28 AM EDT on October 18, 2017 (GMT -0400)
The Hartsfield Atlanta International

Weather History for KATL - February, 2014

Change the Weather History Date:

Thursday, February 27, 2014

  Actual Average Record
Temperature  
Mean Temperature 38 °F 50 °F  
Max Temperature 50 °F 60 °F 79 °F (1962)
Min Temperature 25 °F 40 °F 13 °F (1934)
Degree Days  
Heating Degree Days 27 15  
Month to date heating degree days 469 485  
Since 1 July heating degree days 2380 2239  
Cooling Degree Days 0 0  
Month to date cooling degree days 2 0  
Year to date cooling degree days 2 0  
Moisture  
Dew Point 9 °F    
Average Humidity 32    
Maximum Humidity 46    
Minimum Humidity 18    
Precipitation  
Precipitation 0.00 in 0.16 in 3.04 in (1902)
Month to date precipitation 3.80 4.51  
Year to date precipitation 7.15 8.71  
Snow  
Snow 0.00 in 0.00 in T in (2008)
Month to date snowfall 2.0 0.4  
Since 1 July snowfall 5.0 2.1  
Snow Depth 0.00 in    
Sea Level Pressure  
Sea Level Pressure 29.98 in    
Wind  
Wind Speed 12 mph (NW)    
Max Wind Speed 22 mph    
Max Gust Speed 28 mph    
Visibility 10 miles    
Events      
T = Trace of Precipitation, MM = Missing Value Source: NWS Daily Summary

Daily Weather History Graph

Daily Weather History Graph

Search for Another Location

Airport or City:

Trip Planner

Search our weather history database for the weather conditions in past years. The results will help you decide how hot, cold, wet, or windy it might be!

Date:

Astronomy

Feb. 27, 2014 Rise Set
Actual Time 7:08 AM EST 6:32 PM EST
Civil Twilight 6:43 AM EST 6:57 PM EST
Nautical Twilight 6:14 AM EST 7:26 PM EST
Astronomical Twilight 5:45 AM EST 7:55 PM EST
Moon 5:36 AM EST (2/27) 4:59 PM EST (2/27)
Length of Visible Light 12h 14m
Length of Day
11h 24m
Waning Crescent, 4% of the Moon is Illuminated
Feb 27
Waning Crescent
Mar 1
New
Mar 8
First Quarter
Mar 16
Full
Mar 23
Last Quarter

Hourly Weather History & Observations

Time (EST) Temp. Windchill Dew Point Humidity Pressure Visibility Wind Dir Wind Speed Gust Speed Precip Events Conditions
12:52 AM 32.0 °F 21.2 °F 12.0 °F 44% 29.93 in 10.0 mi NW 16.1 mph - N/A   Partly Cloudy
1:52 AM 30.0 °F 19.5 °F 10.9 °F 45% 29.94 in 10.0 mi NW 13.8 mph - N/A   Partly Cloudy
2:52 AM 28.0 °F 18.6 °F 10.0 °F 47% 29.94 in 10.0 mi NW 10.4 mph - N/A   Partly Cloudy
3:52 AM 28.0 °F 17.5 °F 8.1 °F 43% 29.94 in 10.0 mi NW 12.7 mph - N/A   Partly Cloudy
4:52 AM 27.0 °F 16.7 °F 7.0 °F 43% 29.95 in 10.0 mi NW 11.5 mph - N/A   Clear
5:52 AM 26.1 °F 15.0 °F 7.0 °F 44% 29.96 in 10.0 mi NW 12.7 mph - N/A   Clear
6:52 AM 25.0 °F 13.6 °F 6.1 °F 45% 29.98 in 10.0 mi NNW 12.7 mph - N/A   Partly Cloudy
7:52 AM 26.1 °F 16.2 °F 6.1 °F 43% 29.99 in 10.0 mi NW 10.4 mph 19.6 mph N/A   Partly Cloudy
8:52 AM 28.9 °F 17.3 °F 5.0 °F 36% 30.01 in 10.0 mi NNW 16.1 mph - N/A   Partly Cloudy
9:52 AM 32.0 °F 20.8 °F 3.9 °F 31% 30.01 in 10.0 mi NW 17.3 mph 26.5 mph N/A   Clear
10:52 AM 36.0 °F 27.1 °F 6.1 °F 29% 30.01 in 10.0 mi WNW 13.8 mph - N/A   Clear
11:52 AM 39.0 °F 31.4 °F 3.0 °F 22% 30.02 in 10.0 mi WNW 12.7 mph 19.6 mph N/A   Clear
12:52 PM 43.0 °F 36.4 °F 7.0 °F 23% 29.99 in 10.0 mi WNW 12.7 mph 19.6 mph N/A   Clear
1:52 PM 46.0 °F 40.6 °F 7.0 °F 20% 29.96 in 10.0 mi NW 11.5 mph 19.6 mph N/A   Partly Cloudy
2:52 PM 48.0 °F - 8.1 °F 20% 29.95 in 10.0 mi WNW 11.5 mph 19.6 mph N/A   Partly Cloudy
3:52 PM 50.0 °F - 9.0 °F 19% 29.95 in 10.0 mi NNW 12.7 mph 19.6 mph N/A   Partly Cloudy
4:52 PM 48.9 °F - 8.1 °F 19% 29.94 in 10.0 mi NNW 15.0 mph - N/A   Partly Cloudy
5:52 PM 46.9 °F - 10.0 °F 22% 29.95 in 10.0 mi NW 11.5 mph - N/A   Partly Cloudy
6:52 PM 42.1 °F 37.1 °F 12.0 °F 29% 29.99 in 10.0 mi West 8.1 mph - N/A   Partly Cloudy
7:52 PM 39.9 °F 35.1 °F 12.0 °F 32% 29.99 in 10.0 mi WNW 6.9 mph - N/A   Clear
8:52 PM 39.9 °F 33.9 °F 12.0 °F 32% 29.99 in 10.0 mi NW 9.2 mph - N/A   Clear
9:52 PM 37.9 °F 32.7 °F 12.9 °F 36% 30.01 in 10.0 mi NW 6.9 mph - N/A   Clear
10:52 PM 36.0 °F 31.1 °F 14.0 °F 41% 30.01 in 10.0 mi WNW 5.8 mph - N/A   Clear
11:52 PM 34.0 °F 28.8 °F 15.1 °F 46% 30.02 in 10.0 mi NW 5.8 mph - N/A   Clear